Year,Month,Day,Hour,Minute,Value (Times are PST for temperature in C)
2009,06,03,00,00,18.40
2009,06,03,00,01,18.30
2009,06,03,00,02,18.30
2009,06,03,00,03,18.30
2009,06,03,00,04,18.30
2009,06,03,00,05,18.30
2009,06,03,00,06,18.30
2009,06,03,00,07,18.30
2009,06,03,00,08,18.30
2009,06,03,00,09,18.30
2009,06,03,00,10,18.30
2009,06,03,00,11,18.30
2009,06,03,00,12,18.20
2009,06,03,00,13,18.20
2009,06,03,00,14,18.20
2009,06,03,00,15,18.20
2009,06,03,00,16,18.20
2009,06,03,00,17,18.20
2009,06,03,00,18,18.10
2009,06,03,00,19,18.10
2009,06,03,00,20,18.10
2009,06,03,00,21,18.00
2009,06,03,00,22,18.00
2009,06,03,00,23,18.00
2009,06,03,00,24,17.90
2009,06,03,00,25,17.90
2009,06,03,00,26,17.90
2009,06,03,00,27,17.90
2009,06,03,00,28,17.90
2009,06,03,00,29,17.90
2009,06,03,00,30,17.90
2009,06,03,00,31,17.90
2009,06,03,00,32,17.80
2009,06,03,00,33,17.80
2009,06,03,00,34,17.80
2009,06,03,00,35,17.80
2009,06,03,00,36,17.80
2009,06,03,00,37,17.80
2009,06,03,00,38,17.80
2009,06,03,00,39,17.80
2009,06,03,00,40,17.80
2009,06,03,00,41,17.80
2009,06,03,00,42,17.80
2009,06,03,00,43,17.80
2009,06,03,00,44,17.80
2009,06,03,00,45,17.80
2009,06,03,00,46,17.80
2009,06,03,00,47,17.80
2009,06,03,00,48,17.80
2009,06,03,00,49,17.80
2009,06,03,00,50,17.80
2009,06,03,00,51,17.80
2009,06,03,00,52,17.80
2009,06,03,00,53,17.80
2009,06,03,00,54,17.80
2009,06,03,00,55,17.80
2009,06,03,00,56,17.80
2009,06,03,00,57,17.70
2009,06,03,00,58,17.70
2009,06,03,00,59,17.70
2009,06,03,01,00,17.70
2009,06,03,01,01,17.70
2009,06,03,01,02,17.70
2009,06,03,01,03,17.70
2009,06,03,01,04,17.70
2009,06,03,01,05,17.60
2009,06,03,01,06,17.60
2009,06,03,01,07,17.60
2009,06,03,01,08,17.50
2009,06,03,01,09,17.50
2009,06,03,01,10,17.40
2009,06,03,01,11,17.40
2009,06,03,01,12,17.40
2009,06,03,01,13,17.30
2009,06,03,01,14,17.30
2009,06,03,01,15,17.30
2009,06,03,01,16,17.30
2009,06,03,01,17,17.30
2009,06,03,01,18,17.30
2009,06,03,01,19,17.30
2009,06,03,01,20,17.20
2009,06,03,01,21,17.20
2009,06,03,01,22,17.20
2009,06,03,01,23,17.20
2009,06,03,01,24,17.20
2009,06,03,01,25,17.20
2009,06,03,01,26,17.20
2009,06,03,01,27,17.20
2009,06,03,01,28,17.10
2009,06,03,01,29,17.10
2009,06,03,01,30,17.10
2009,06,03,01,31,17.10
2009,06,03,01,32,17.10
2009,06,03,01,33,17.10
2009,06,03,01,34,17.00
2009,06,03,01,35,17.00
2009,06,03,01,36,16.90
2009,06,03,01,37,16.90
2009,06,03,01,38,16.90
2009,06,03,01,39,16.90
2009,06,03,01,40,16.80
2009,06,03,01,41,16.80
2009,06,03,01,42,16.80
2009,06,03,01,43,16.80
2009,06,03,01,44,16.80
2009,06,03,01,45,16.80
2009,06,03,01,46,16.70
2009,06,03,01,47,16.70
2009,06,03,01,48,16.70
2009,06,03,01,49,16.70
2009,06,03,01,50,16.70
2009,06,03,01,51,16.60
2009,06,03,01,52,16.60
2009,06,03,01,53,16.60
2009,06,03,01,54,16.60
2009,06,03,01,55,16.60
2009,06,03,01,56,16.50
2009,06,03,01,57,16.60
2009,06,03,01,58,16.60
2009,06,03,01,59,16.60
2009,06,03,02,00,16.60
2009,06,03,02,01,16.60
2009,06,03,02,02,16.60
2009,06,03,02,03,16.60
2009,06,03,02,04,16.60
2009,06,03,02,05,16.60
2009,06,03,02,06,16.50
2009,06,03,02,07,16.50
2009,06,03,02,08,16.50
2009,06,03,02,09,16.40
2009,06,03,02,10,16.40
2009,06,03,02,11,16.40
2009,06,03,02,12,16.40
2009,06,03,02,13,16.30
2009,06,03,02,14,16.30
2009,06,03,02,15,16.30
2009,06,03,02,16,16.30
2009,06,03,02,17,16.30
2009,06,03,02,18,16.30
2009,06,03,02,19,16.30
2009,06,03,02,20,16.30
2009,06,03,02,21,16.30
2009,06,03,02,22,16.30
2009,06,03,02,23,16.40
2009,06,03,02,24,16.40
2009,06,03,02,25,16.30
2009,06,03,02,26,16.30
2009,06,03,02,27,16.30
2009,06,03,02,28,16.30
2009,06,03,02,29,16.30
2009,06,03,02,30,16.30
2009,06,03,02,31,16.30
2009,06,03,02,32,16.30
2009,06,03,02,33,16.30
2009,06,03,02,34,16.30
2009,06,03,02,35,16.30
2009,06,03,02,36,16.30
2009,06,03,02,37,16.30
2009,06,03,02,38,16.30
2009,06,03,02,39,16.30
2009,06,03,02,40,16.30
2009,06,03,02,41,16.30
2009,06,03,02,42,16.30
2009,06,03,02,43,16.30
2009,06,03,02,44,16.30
2009,06,03,02,45,16.30
2009,06,03,02,46,16.30
2009,06,03,02,47,16.30
2009,06,03,02,48,16.30
2009,06,03,02,49,16.30
2009,06,03,02,50,16.20
2009,06,03,02,51,16.20
2009,06,03,02,52,16.20
2009,06,03,02,53,16.20
2009,06,03,02,54,16.20
2009,06,03,02,55,16.20
2009,06,03,02,56,16.20
2009,06,03,02,57,16.20
2009,06,03,02,58,16.20
2009,06,03,02,59,16.20
2009,06,03,03,00,16.20
2009,06,03,03,01,16.20
2009,06,03,03,02,16.20
2009,06,03,03,03,16.20
2009,06,03,03,04,16.10
2009,06,03,03,05,16.10
2009,06,03,03,06,16.00
2009,06,03,03,07,16.00
2009,06,03,03,08,15.90
2009,06,03,03,09,15.90
2009,06,03,03,10,15.90
2009,06,03,03,11,15.80
2009,06,03,03,12,15.80
2009,06,03,03,13,15.80
2009,06,03,03,14,15.80
2009,06,03,03,15,15.80
2009,06,03,03,16,15.80
2009,06,03,03,17,15.80
2009,06,03,03,18,15.70
2009,06,03,03,19,15.70
2009,06,03,03,20,15.70
2009,06,03,03,21,15.70
2009,06,03,03,22,15.70
2009,06,03,03,23,15.70
2009,06,03,03,24,15.70
2009,06,03,03,25,15.70
2009,06,03,03,26,15.70
2009,06,03,03,27,15.70
2009,06,03,03,28,15.70
2009,06,03,03,29,15.70
2009,06,03,03,30,15.60
2009,06,03,03,31,15.60
2009,06,03,03,32,15.60
2009,06,03,03,33,15.60
2009,06,03,03,34,15.60
2009,06,03,03,35,15.60
2009,06,03,03,36,15.60
2009,06,03,03,37,15.60
2009,06,03,03,38,15.50
2009,06,03,03,39,15.50
2009,06,03,03,40,15.50
2009,06,03,03,41,15.50
2009,06,03,03,42,15.50
2009,06,03,03,43,15.50
2009,06,03,03,44,15.50
2009,06,03,03,45,15.50
2009,06,03,03,46,15.50
2009,06,03,03,47,15.50
2009,06,03,03,48,15.50
2009,06,03,03,49,15.50
2009,06,03,03,50,15.50
2009,06,03,03,51,15.50
2009,06,03,03,52,15.50
2009,06,03,03,53,15.50
2009,06,03,03,54,15.50
2009,06,03,03,55,15.40
2009,06,03,03,56,15.40
2009,06,03,03,57,15.40
2009,06,03,03,58,15.40
2009,06,03,03,59,15.40
2009,06,03,04,00,15.30
2009,06,03,04,01,15.30
2009,06,03,04,02,15.30
2009,06,03,04,03,15.20
2009,06,03,04,04,15.10
2009,06,03,04,05,15.10
2009,06,03,04,06,15.00
2009,06,03,04,07,15.00
2009,06,03,04,08,15.00
2009,06,03,04,09,15.00
2009,06,03,04,10,15.00
2009,06,03,04,11,15.00
2009,06,03,04,12,15.00
2009,06,03,04,13,15.00
2009,06,03,04,14,15.00
2009,06,03,04,15,15.00
2009,06,03,04,16,15.00
2009,06,03,04,17,15.00
2009,06,03,04,18,15.10
2009,06,03,04,19,15.20
2009,06,03,04,20,15.30
2009,06,03,04,21,15.40
2009,06,03,04,22,15.60
2009,06,03,04,23,15.70
2009,06,03,04,24,15.80
2009,06,03,04,25,15.80
2009,06,03,04,26,15.90
2009,06,03,04,27,16.00
2009,06,03,04,28,16.00
2009,06,03,04,29,16.10
2009,06,03,04,30,16.10
2009,06,03,04,31,16.20
2009,06,03,04,32,16.20
2009,06,03,04,33,16.20
2009,06,03,04,34,16.20
2009,06,03,04,35,16.20
2009,06,03,04,36,16.20
2009,06,03,04,37,16.20
2009,06,03,04,38,16.10
2009,06,03,04,39,16.10
2009,06,03,04,40,16.10
2009,06,03,04,41,16.10
2009,06,03,04,42,16.00
2009,06,03,04,43,16.00
2009,06,03,04,44,15.90
2009,06,03,04,45,15.90
2009,06,03,04,46,15.90
2009,06,03,04,47,15.90
2009,06,03,04,48,16.00
2009,06,03,04,49,16.00
2009,06,03,04,50,16.10
2009,06,03,04,51,16.10
2009,06,03,04,52,16.10
2009,06,03,04,53,16.20
2009,06,03,04,54,16.20
2009,06,03,04,55,16.30
2009,06,03,04,56,16.30
2009,06,03,04,57,16.40
2009,06,03,04,58,16.50
2009,06,03,04,59,16.50
2009,06,03,05,00,16.60
2009,06,03,05,01,16.60
2009,06,03,05,02,16.60
2009,06,03,05,03,16.60
2009,06,03,05,04,16.60
2009,06,03,05,05,16.60
2009,06,03,05,06,16.60
2009,06,03,05,07,16.60
2009,06,03,05,08,16.60
2009,06,03,05,09,16.60
2009,06,03,05,10,16.60
2009,06,03,05,11,16.60
2009,06,03,05,12,16.70
2009,06,03,05,13,16.70
2009,06,03,05,14,16.70
2009,06,03,05,15,16.70
2009,06,03,05,16,16.70
2009,06,03,05,17,16.70
2009,06,03,05,18,16.70
2009,06,03,05,19,16.70
2009,06,03,05,20,16.60
2009,06,03,05,21,16.60
2009,06,03,05,22,16.60
2009,06,03,05,23,16.50
2009,06,03,05,24,16.50
2009,06,03,05,25,16.40
2009,06,03,05,26,16.40
2009,06,03,05,27,16.40
2009,06,03,05,28,16.30
2009,06,03,05,29,16.20
2009,06,03,05,30,16.10
2009,06,03,05,31,16.00
2009,06,03,05,32,16.00
2009,06,03,05,33,15.90
2009,06,03,05,34,15.80
2009,06,03,05,35,15.70
2009,06,03,05,36,15.70
2009,06,03,05,37,15.60
2009,06,03,05,38,15.50
2009,06,03,05,39,15.40
2009,06,03,05,40,15.30
2009,06,03,05,41,15.20
2009,06,03,05,42,15.20
2009,06,03,05,43,15.10
2009,06,03,05,44,15.10
2009,06,03,05,45,15.00
2009,06,03,05,46,15.00
2009,06,03,05,47,15.00
2009,06,03,05,48,15.00
2009,06,03,05,49,15.00
2009,06,03,05,50,15.00
2009,06,03,05,51,15.00
2009,06,03,05,52,15.20
2009,06,03,05,53,15.30
2009,06,03,05,54,15.40
2009,06,03,05,55,15.60
2009,06,03,05,56,15.80
2009,06,03,05,57,16.00
2009,06,03,05,58,16.30
2009,06,03,05,59,16.60
2009,06,03,06,00,16.80
2009,06,03,06,01,17.00
2009,06,03,06,02,17.20
2009,06,03,06,03,17.30
2009,06,03,06,04,17.40
2009,06,03,06,05,17.60
2009,06,03,06,06,17.70
2009,06,03,06,07,17.70
2009,06,03,06,08,17.80
2009,06,03,06,09,17.90
2009,06,03,06,10,17.90
2009,06,03,06,11,17.90
2009,06,03,06,12,18.00
2009,06,03,06,13,18.00
2009,06,03,06,14,18.00
2009,06,03,06,15,18.10
2009,06,03,06,16,18.10
2009,06,03,06,17,18.10
2009,06,03,06,18,18.10
2009,06,03,06,19,18.10
2009,06,03,06,20,18.10
2009,06,03,06,21,18.10
2009,06,03,06,22,18.10
2009,06,03,06,23,18.10
2009,06,03,06,24,18.10
2009,06,03,06,25,18.10
2009,06,03,06,26,18.10
2009,06,03,06,27,18.10
2009,06,03,06,28,18.10
2009,06,03,06,29,18.10
2009,06,03,06,30,18.10
2009,06,03,06,31,18.10
2009,06,03,06,32,18.10
2009,06,03,06,33,18.10
2009,06,03,06,34,18.10
2009,06,03,06,35,18.10
2009,06,03,06,36,18.10
2009,06,03,06,37,18.10
2009,06,03,06,38,18.10
2009,06,03,06,39,18.10
2009,06,03,06,40,18.10
2009,06,03,06,41,18.10
2009,06,03,06,42,18.10
2009,06,03,06,43,18.00
2009,06,03,06,44,18.00
2009,06,03,06,45,18.00
2009,06,03,06,46,18.00
2009,06,03,06,47,18.00
2009,06,03,06,48,18.00
2009,06,03,06,49,18.00
2009,06,03,06,50,18.00
2009,06,03,06,51,18.10
2009,06,03,06,52,18.10
2009,06,03,06,53,18.10
2009,06,03,06,54,18.10
2009,06,03,06,55,18.20
2009,06,03,06,56,18.20
2009,06,03,06,57,18.20
2009,06,03,06,58,18.30
2009,06,03,06,59,18.30
2009,06,03,07,00,18.30
2009,06,03,07,01,18.40
2009,06,03,07,02,18.40
2009,06,03,07,03,18.40
2009,06,03,07,04,18.50
2009,06,03,07,05,18.50
2009,06,03,07,06,18.60
2009,06,03,07,07,18.60
2009,06,03,07,08,18.60
2009,06,03,07,09,18.60
2009,06,03,07,10,18.70
2009,06,03,07,11,18.70
2009,06,03,07,12,18.80
2009,06,03,07,13,18.80
2009,06,03,07,14,18.80
2009,06,03,07,15,18.80
2009,06,03,07,16,18.80
2009,06,03,07,17,18.80
2009,06,03,07,18,18.80
2009,06,03,07,19,18.80
2009,06,03,07,20,18.90
2009,06,03,07,21,18.90
2009,06,03,07,22,18.90
2009,06,03,07,23,18.90
2009,06,03,07,24,18.90
2009,06,03,07,25,19.00
2009,06,03,07,26,19.00
2009,06,03,07,27,19.00
2009,06,03,07,28,19.00
2009,06,03,07,29,19.10
2009,06,03,07,30,19.10
2009,06,03,07,31,19.10
2009,06,03,07,32,19.10
2009,06,03,07,33,19.10
2009,06,03,07,34,19.20
2009,06,03,07,35,19.20
2009,06,03,07,36,19.20
2009,06,03,07,37,19.30
2009,06,03,07,38,19.30
2009,06,03,07,39,19.30
2009,06,03,07,40,19.40
2009,06,03,07,41,19.40
2009,06,03,07,42,19.40
2009,06,03,07,43,19.40
2009,06,03,07,44,19.50
2009,06,03,07,45,19.50
2009,06,03,07,46,19.50
2009,06,03,07,47,19.60
2009,06,03,07,48,19.60
2009,06,03,07,49,19.60
2009,06,03,07,50,19.70
2009,06,03,07,51,19.70
2009,06,03,07,52,19.70
2009,06,03,07,53,19.70
2009,06,03,07,54,19.70
2009,06,03,07,55,19.80
2009,06,03,07,56,19.80
2009,06,03,07,57,19.80
2009,06,03,07,58,19.90
2009,06,03,07,59,19.90
2009,06,03,08,00,19.90
2009,06,03,08,01,20.00
2009,06,03,08,02,20.00
2009,06,03,08,03,20.10
2009,06,03,08,04,20.10
2009,06,03,08,05,20.10
2009,06,03,08,06,20.20
2009,06,03,08,07,20.20
2009,06,03,08,08,20.30
2009,06,03,08,09,20.30
2009,06,03,08,10,20.30
2009,06,03,08,11,20.40
2009,06,03,08,12,20.40
2009,06,03,08,13,20.50
2009,06,03,08,14,20.50
2009,06,03,08,15,20.60
2009,06,03,08,16,20.60
2009,06,03,08,17,20.70
2009,06,03,08,18,20.70
2009,06,03,08,19,20.80
2009,06,03,08,20,20.80
2009,06,03,08,21,20.90
2009,06,03,08,22,20.90
2009,06,03,08,23,20.90
2009,06,03,08,24,21.00
2009,06,03,08,25,21.10
2009,06,03,08,26,21.10
2009,06,03,08,27,21.20
2009,06,03,08,28,21.20
2009,06,03,08,29,21.20
2009,06,03,08,30,21.30
2009,06,03,08,31,21.30
2009,06,03,08,32,21.30
2009,06,03,08,33,21.30
2009,06,03,08,34,21.40
2009,06,03,08,35,21.40
2009,06,03,08,36,21.40
2009,06,03,08,37,21.40
2009,06,03,08,38,21.50
2009,06,03,08,39,21.60
2009,06,03,08,40,21.60
2009,06,03,08,41,21.60
2009,06,03,08,42,21.60
2009,06,03,08,43,21.60
2009,06,03,08,44,21.70
2009,06,03,08,45,21.70
2009,06,03,08,46,21.80
2009,06,03,08,47,21.80
2009,06,03,08,48,21.90
2009,06,03,08,49,22.00
2009,06,03,08,50,22.10
2009,06,03,08,51,22.10
2009,06,03,08,52,22.20
2009,06,03,08,53,22.20
2009,06,03,08,54,22.20
2009,06,03,08,55,22.20
2009,06,03,08,56,22.30
2009,06,03,08,57,22.30
2009,06,03,08,58,22.30
2009,06,03,08,59,22.40
2009,06,03,09,00,22.40
2009,06,03,09,01,22.40
2009,06,03,09,02,22.40
2009,06,03,09,03,22.40
2009,06,03,09,04,22.40
2009,06,03,09,05,22.50
2009,06,03,09,06,22.60
2009,06,03,09,07,22.60
2009,06,03,09,08,22.70
2009,06,03,09,09,22.80
2009,06,03,09,10,22.80
2009,06,03,09,11,22.80
2009,06,03,09,12,22.80
2009,06,03,09,13,22.80
2009,06,03,09,14,22.80
2009,06,03,09,15,22.80
2009,06,03,09,16,22.90
2009,06,03,09,17,23.00
2009,06,03,09,18,23.00
2009,06,03,09,19,23.00
2009,06,03,09,20,23.00
2009,06,03,09,21,23.10
2009,06,03,09,22,23.10
2009,06,03,09,23,23.10
2009,06,03,09,24,23.10
2009,06,03,09,25,23.10
2009,06,03,09,26,23.10
2009,06,03,09,27,23.10
2009,06,03,09,28,23.10
2009,06,03,09,29,23.10
2009,06,03,09,30,23.10
2009,06,03,09,31,23.10
2009,06,03,09,32,23.10
2009,06,03,09,33,23.10
2009,06,03,09,34,23.20
2009,06,03,09,35,23.20
2009,06,03,09,36,23.30
2009,06,03,09,37,23.30
2009,06,03,09,38,23.40
2009,06,03,09,39,23.40
2009,06,03,09,40,23.40
2009,06,03,09,41,23.40
2009,06,03,09,42,23.30
2009,06,03,09,43,23.30
2009,06,03,09,44,23.30
2009,06,03,09,45,23.30
2009,06,03,09,46,23.30
2009,06,03,09,47,23.30
2009,06,03,09,48,23.40
2009,06,03,09,49,23.40
2009,06,03,09,50,23.50
2009,06,03,09,51,23.50
2009,06,03,09,52,23.60
2009,06,03,09,53,23.60
2009,06,03,09,54,23.70
2009,06,03,09,55,23.80
2009,06,03,09,56,23.80
2009,06,03,09,57,23.80
2009,06,03,09,58,23.90
2009,06,03,09,59,23.90
2009,06,03,10,00,23.90
2009,06,03,10,01,23.90
2009,06,03,10,02,23.90
2009,06,03,10,03,23.90
2009,06,03,10,04,24.00
2009,06,03,10,05,24.00
2009,06,03,10,06,24.10
2009,06,03,10,07,24.10
2009,06,03,10,08,24.20
2009,06,03,10,09,24.20
2009,06,03,10,10,24.30
2009,06,03,10,11,24.30
2009,06,03,10,12,24.30
2009,06,03,10,13,24.30
2009,06,03,10,14,24.30
2009,06,03,10,15,24.30
2009,06,03,10,16,24.30
2009,06,03,10,17,24.40
2009,06,03,10,18,24.40
2009,06,03,10,19,24.50
2009,06,03,10,20,24.50
2009,06,03,10,21,24.50
2009,06,03,10,22,24.50
2009,06,03,10,23,24.50
2009,06,03,10,24,24.40
2009,06,03,10,25,24.30
2009,06,03,10,26,24.30
2009,06,03,10,27,24.30
2009,06,03,10,28,24.20
2009,06,03,10,29,24.20
2009,06,03,10,30,24.30
2009,06,03,10,31,24.20
2009,06,03,10,32,24.20
2009,06,03,10,33,24.20
2009,06,03,10,34,24.20
2009,06,03,10,35,24.20
2009,06,03,10,36,24.20
2009,06,03,10,37,24.20
2009,06,03,10,38,24.20
2009,06,03,10,39,24.20
2009,06,03,10,40,24.20
2009,06,03,10,41,24.30
2009,06,03,10,42,24.40
2009,06,03,10,43,24.40
2009,06,03,10,44,24.50
2009,06,03,10,45,24.60
2009,06,03,10,46,24.60
2009,06,03,10,47,24.60
2009,06,03,10,48,24.60
2009,06,03,10,49,24.60
2009,06,03,10,50,24.70
2009,06,03,10,51,24.60
2009,06,03,10,52,24.60
2009,06,03,10,53,24.60
2009,06,03,10,54,24.70
2009,06,03,10,55,24.70
2009,06,03,10,56,24.80
2009,06,03,10,57,24.80
2009,06,03,10,58,24.90
2009,06,03,10,59,25.00
2009,06,03,11,00,25.00
2009,06,03,11,01,25.10
2009,06,03,11,02,25.20
2009,06,03,11,03,25.30
2009,06,03,11,04,25.40
2009,06,03,11,05,25.40
2009,06,03,11,06,25.50
2009,06,03,11,07,25.50
2009,06,03,11,08,25.60
2009,06,03,11,09,25.60
2009,06,03,11,10,25.60
2009,06,03,11,11,25.70
2009,06,03,11,12,25.80
2009,06,03,11,13,25.90
2009,06,03,11,14,25.90
2009,06,03,11,15,25.90
2009,06,03,11,16,25.90
2009,06,03,11,17,25.80
2009,06,03,11,18,25.70
2009,06,03,11,19,25.70
2009,06,03,11,20,25.60
2009,06,03,11,21,25.50
2009,06,03,11,22,25.50
2009,06,03,11,23,25.50
2009,06,03,11,24,25.40
2009,06,03,11,25,25.40
2009,06,03,11,26,25.50
2009,06,03,11,27,25.50
2009,06,03,11,28,25.50
2009,06,03,11,29,25.50
2009,06,03,11,30,25.60
2009,06,03,11,31,25.60
2009,06,03,11,32,25.70
2009,06,03,11,33,25.80
2009,06,03,11,34,25.80
2009,06,03,11,35,25.80
2009,06,03,11,36,25.90
2009,06,03,11,37,25.90
2009,06,03,11,38,25.90
2009,06,03,11,39,25.90
2009,06,03,11,40,25.80
2009,06,03,11,41,25.90
2009,06,03,11,42,25.90
2009,06,03,11,43,25.90
2009,06,03,11,44,25.90
2009,06,03,11,45,25.80
2009,06,03,11,46,25.80
2009,06,03,11,47,25.80
2009,06,03,11,48,25.80
2009,06,03,11,49,25.80
2009,06,03,11,50,25.80
2009,06,03,11,51,25.80
2009,06,03,11,52,25.80
2009,06,03,11,53,25.80
2009,06,03,11,54,25.80
2009,06,03,11,55,25.90
2009,06,03,11,56,25.90
2009,06,03,11,57,25.90
2009,06,03,11,58,25.90
2009,06,03,11,59,25.90
2009,06,03,12,00,25.90
2009,06,03,12,01,25.90
2009,06,03,12,02,25.90
2009,06,03,12,03,25.90
2009,06,03,12,04,26.00
2009,06,03,12,05,26.10
2009,06,03,12,06,26.20
2009,06,03,12,07,26.20
2009,06,03,12,08,26.30
2009,06,03,12,09,26.30
2009,06,03,12,10,26.40
2009,06,03,12,11,26.40
2009,06,03,12,12,26.50
2009,06,03,12,13,26.60
2009,06,03,12,14,26.60
2009,06,03,12,15,26.60
2009,06,03,12,16,26.60
2009,06,03,12,17,26.60
2009,06,03,12,18,26.60
2009,06,03,12,19,26.60
2009,06,03,12,20,26.60
2009,06,03,12,21,26.60
2009,06,03,12,22,26.60
2009,06,03,12,23,26.60
2009,06,03,12,24,26.60
2009,06,03,12,25,26.70
2009,06,03,12,26,26.70
2009,06,03,12,27,26.80
2009,06,03,12,28,26.80
2009,06,03,12,29,26.90
2009,06,03,12,30,27.00
2009,06,03,12,31,27.00
2009,06,03,12,32,27.00
2009,06,03,12,33,26.90
2009,06,03,12,34,26.80
2009,06,03,12,35,26.80
2009,06,03,12,36,26.80
2009,06,03,12,37,26.80
2009,06,03,12,38,26.70
2009,06,03,12,39,26.70
2009,06,03,12,40,26.60
2009,06,03,12,41,26.60
2009,06,03,12,42,26.60
2009,06,03,12,43,26.60
2009,06,03,12,44,26.60
2009,06,03,12,45,26.70
2009,06,03,12,46,26.70
2009,06,03,12,47,26.80
2009,06,03,12,48,26.90
2009,06,03,12,49,27.00
2009,06,03,12,50,27.10
2009,06,03,12,51,27.10
2009,06,03,12,52,27.10
2009,06,03,12,53,27.00
2009,06,03,12,54,26.90
2009,06,03,12,55,26.90
2009,06,03,12,56,27.00
2009,06,03,12,57,27.10
2009,06,03,12,58,27.10
2009,06,03,12,59,27.00
2009,06,03,13,00,26.90
2009,06,03,13,01,26.90
2009,06,03,13,02,26.90
2009,06,03,13,03,27.00
2009,06,03,13,04,27.00
2009,06,03,13,05,27.00
2009,06,03,13,06,27.00
2009,06,03,13,07,26.90
2009,06,03,13,08,26.90
2009,06,03,13,09,27.00
2009,06,03,13,10,27.10
2009,06,03,13,11,27.10
2009,06,03,13,12,27.20
2009,06,03,13,13,27.40
2009,06,03,13,14,27.60
2009,06,03,13,15,27.70
2009,06,03,13,16,27.80
2009,06,03,13,17,27.90
2009,06,03,13,18,27.90
2009,06,03,13,19,27.90
2009,06,03,13,20,27.90
2009,06,03,13,21,27.90
2009,06,03,13,22,27.90
2009,06,03,13,23,28.00
2009,06,03,13,24,28.10
2009,06,03,13,25,28.20
2009,06,03,13,26,28.20
2009,06,03,13,27,28.30
2009,06,03,13,28,28.30
2009,06,03,13,29,28.30
2009,06,03,13,30,28.30
2009,06,03,13,31,28.20
2009,06,03,13,32,28.20
2009,06,03,13,33,28.20
2009,06,03,13,34,28.30
2009,06,03,13,35,28.40
2009,06,03,13,36,28.30
2009,06,03,13,37,28.30
2009,06,03,13,38,28.40
2009,06,03,13,39,28.40
2009,06,03,13,40,28.50
2009,06,03,13,41,28.60
2009,06,03,13,42,28.70
2009,06,03,13,43,28.80
2009,06,03,13,44,28.90
2009,06,03,13,45,29.10
2009,06,03,13,46,29.10
2009,06,03,13,47,29.20
2009,06,03,13,48,29.20
2009,06,03,13,49,29.10
2009,06,03,13,50,29.10
2009,06,03,13,51,29.20
2009,06,03,13,52,29.20
2009,06,03,13,53,29.20
2009,06,03,13,54,29.20
2009,06,03,13,55,29.20
2009,06,03,13,56,29.30
2009,06,03,13,57,29.30
2009,06,03,13,58,29.30
2009,06,03,13,59,29.30
2009,06,03,14,00,29.40
2009,06,03,14,01,29.40
2009,06,03,14,02,29.40
2009,06,03,14,03,29.50
2009,06,03,14,04,29.50
2009,06,03,14,05,29.50
2009,06,03,14,06,29.50
2009,06,03,14,07,29.50
2009,06,03,14,08,29.60
2009,06,03,14,09,29.60
2009,06,03,14,10,29.70
2009,06,03,14,11,29.70
2009,06,03,14,12,29.80
2009,06,03,14,13,29.80
2009,06,03,14,14,29.80
2009,06,03,14,15,29.60
2009,06,03,14,16,29.50
2009,06,03,14,17,29.40
2009,06,03,14,18,29.40
2009,06,03,14,19,29.40
2009,06,03,14,20,29.30
2009,06,03,14,21,29.30
2009,06,03,14,22,29.20
2009,06,03,14,23,29.20
2009,06,03,14,24,29.00
2009,06,03,14,25,28.80
2009,06,03,14,26,28.70
2009,06,03,14,27,28.70
2009,06,03,14,28,28.80
2009,06,03,14,29,29.00
2009,06,03,14,30,29.10
2009,06,03,14,31,29.20
2009,06,03,14,32,29.20
2009,06,03,14,33,29.30
2009,06,03,14,34,29.40
2009,06,03,14,35,29.50
2009,06,03,14,36,29.60
2009,06,03,14,37,29.60
2009,06,03,14,38,29.70
2009,06,03,14,39,29.80
2009,06,03,14,40,29.80
2009,06,03,14,41,29.70
2009,06,03,14,42,29.50
2009,06,03,14,43,29.40
2009,06,03,14,44,29.30
2009,06,03,14,45,29.30
2009,06,03,14,46,29.20
2009,06,03,14,47,29.10
2009,06,03,14,48,29.00
2009,06,03,14,49,28.90
2009,06,03,14,50,28.90
2009,06,03,14,51,28.90
2009,06,03,14,52,28.80
2009,06,03,14,53,28.70
2009,06,03,14,54,28.70
2009,06,03,14,55,28.60
2009,06,03,14,56,28.70
2009,06,03,14,57,28.70
2009,06,03,14,58,28.70
2009,06,03,14,59,28.80
2009,06,03,15,00,28.90
2009,06,03,15,01,29.00
2009,06,03,15,02,29.10
2009,06,03,15,03,29.20
2009,06,03,15,04,29.20
2009,06,03,15,05,29.30
2009,06,03,15,06,29.30
2009,06,03,15,07,29.30
2009,06,03,15,08,29.40
2009,06,03,15,09,29.50
2009,06,03,15,10,29.60
2009,06,03,15,11,29.70
2009,06,03,15,12,29.80
2009,06,03,15,13,29.90
2009,06,03,15,14,30.10
2009,06,03,15,15,30.20
2009,06,03,15,16,30.40
2009,06,03,15,17,30.50
2009,06,03,15,18,30.70
2009,06,03,15,19,30.90
2009,06,03,15,20,31.00
2009,06,03,15,21,31.00
2009,06,03,15,22,31.10
2009,06,03,15,23,31.10
2009,06,03,15,24,31.10
2009,06,03,15,25,31.10
2009,06,03,15,26,31.00
2009,06,03,15,27,30.90
2009,06,03,15,28,30.70
2009,06,03,15,29,30.50
2009,06,03,15,30,30.30
2009,06,03,15,31,30.10
2009,06,03,15,32,29.90
2009,06,03,15,33,29.60
2009,06,03,15,34,29.50
2009,06,03,15,35,29.40
2009,06,03,15,36,29.40
2009,06,03,15,37,29.40
2009,06,03,15,38,29.30
2009,06,03,15,39,29.20
2009,06,03,15,40,29.20
2009,06,03,15,41,29.20
2009,06,03,15,42,29.20
2009,06,03,15,43,29.20
2009,06,03,15,44,29.30
2009,06,03,15,45,29.40
2009,06,03,15,46,29.50
2009,06,03,15,47,29.60
2009,06,03,15,48,29.60
2009,06,03,15,49,29.60
2009,06,03,15,50,29.60
2009,06,03,15,51,29.50
2009,06,03,15,52,29.40
2009,06,03,15,53,29.50
2009,06,03,15,54,29.40
2009,06,03,15,55,29.50
2009,06,03,15,56,29.50
2009,06,03,15,57,29.50
2009,06,03,15,58,29.50
2009,06,03,15,59,29.50
2009,06,03,16,00,29.40
2009,06,03,16,01,29.30
2009,06,03,16,02,29.20
2009,06,03,16,03,29.30
2009,06,03,16,04,29.40
2009,06,03,16,05,29.50
2009,06,03,16,06,29.60
2009,06,03,16,07,29.60
2009,06,03,16,08,29.80
2009,06,03,16,09,29.90
2009,06,03,16,10,30.00
2009,06,03,16,11,30.00
2009,06,03,16,12,30.10
2009,06,03,16,13,30.10
2009,06,03,16,14,30.10
2009,06,03,16,15,30.10
2009,06,03,16,16,30.00
2009,06,03,16,17,30.00
2009,06,03,16,18,29.90
2009,06,03,16,19,29.90
2009,06,03,16,20,29.90
2009,06,03,16,21,30.00
2009,06,03,16,22,30.20
2009,06,03,16,23,30.30
2009,06,03,16,24,30.40
2009,06,03,16,25,30.50
2009,06,03,16,26,30.50
2009,06,03,16,27,30.60
2009,06,03,16,28,30.70
2009,06,03,16,29,30.80
2009,06,03,16,30,30.90
2009,06,03,16,31,31.00
2009,06,03,16,32,31.10
2009,06,03,16,33,31.00
2009,06,03,16,34,30.90
2009,06,03,16,35,30.90
2009,06,03,16,36,30.90
2009,06,03,16,37,30.80
2009,06,03,16,38,30.80
2009,06,03,16,39,30.80
2009,06,03,16,40,30.80
2009,06,03,16,41,30.80
2009,06,03,16,42,30.80
2009,06,03,16,43,30.80
2009,06,03,16,44,30.80
2009,06,03,16,45,30.90
2009,06,03,16,46,31.00
2009,06,03,16,47,31.20
2009,06,03,16,48,31.40
2009,06,03,16,49,31.50
2009,06,03,16,50,31.60
2009,06,03,16,51,31.70
2009,06,03,16,52,31.70
2009,06,03,16,53,31.80
2009,06,03,16,54,31.70
2009,06,03,16,55,31.70
2009,06,03,16,56,31.50
2009,06,03,16,57,31.50
2009,06,03,16,58,31.50
2009,06,03,16,59,31.50
2009,06,03,17,00,31.40
2009,06,03,17,01,31.30
2009,06,03,17,02,31.30
2009,06,03,17,03,31.20
2009,06,03,17,04,31.20
2009,06,03,17,05,31.20
2009,06,03,17,06,31.30
2009,06,03,17,07,31.40
2009,06,03,17,08,31.50
2009,06,03,17,09,31.60
2009,06,03,17,10,31.70
2009,06,03,17,11,31.70
2009,06,03,17,12,31.70
2009,06,03,17,13,31.70
2009,06,03,17,14,31.80
2009,06,03,17,15,31.90
2009,06,03,17,16,32.00
2009,06,03,17,17,32.00
2009,06,03,17,18,32.10
2009,06,03,17,19,32.20